Location: Koslow
(50.3020°N, 18.5663°E)
Time: 00:55:46
(UTC+00:00)

STARLINK-1357 - Visible Passes

Search period start: 14 June 2021 00:00
Search period end: 24 June 2021 00:00
Orbit: 546 x 548 km, 53.1° (Epoch: 13 June)

Date Brightness Start Highest point End Pass type
(mag) Time Alt. Az. Time Alt. Az. Time Alt. Az.
16 Jun 6.0 01:37:51 10° SSE 01:39:26 12° SE 01:41:02 10° ESE visible
17 Jun 5.8 01:30:29 10° S 01:32:56 15° SE 01:35:24 10° E visible
18 Jun 5.5 01:23:27 10° S 01:26:26 19° SE 01:29:26 10° E visible
19 Jun 5.1 01:16:41 10° SSW 01:19:57 24° SE 01:23:19 10° E visible
20 Jun 4.8 01:10:21 13° SSW 01:13:27 30° SE 01:17:05 10° E visible
21 Jun 4.4 01:03:56 15° SSW 01:06:58 37° SE 01:10:48 10° ENE visible
21 Jun 6.0 23:21:54 10° SE 23:21:54 10° SE 23:22:26 10° ESE visible
22 Jun 4.1 00:57:28 16° SW 01:00:29 45° SSE 01:04:27 10° ENE visible
22 Jun 5.7 23:15:21 13° SE 23:15:21 13° SE 23:17:16 10° ESE visible
23 Jun 3.8 00:50:55 16° SW 00:54:01 55° SSE 00:58:04 10° ENE visible
23 Jun 5.4 23:08:44 17° SE 23:08:44 17° SE 23:11:20 10° E visible
